Total_Precipitation_Accumulation
0.01 0.01 0.01 0.02 0.05 0.08 0.24 0.31 0.30 0.29 0.35 0.29 0.27 0.30 0.44 0.59 0.78 1.40 0.87 0.47 0.29 0.18 0.16 0.16 0.24 0.19 0.17 0.19 0.21 0.26 0.33 0.30 0.29 0.23 0.21 0.21 0.21 0.20 0.20 0.19 0.21 0.27 0.33 0.33 0.33 0.35 0.37 0.36 0.33
0.01 0.01 0.02 0.03 0.07 0.17 0.33 0.32 0.33 0.28 0.30 0.31 0.28 0.29 0.36 0.48 0.39 0.44 0.38 0.37 0.29 0.17 0.16 0.13 0.18 0.23 0.19 0.19 0.21 0.27 0.34 0.30 0.32 0.26 0.22 0.22 0.22 0.23 0.24 0.23 0.25 0.33 0.39 0.40 0.39 0.39 0.38 0.38 0.35
0.01 0.01 0.02 0.03 0.08 0.17 0.34 0.35 0.36 0.31 0.31 0.30 0.36 0.41 0.47 0.59 0.55 0.51 0.45 0.41 0.35 0.23 0.18 0.16 0.17 0.20 0.20 0.21 0.22 0.31 0.37 0.32 0.34 0.28 0.24 0.24 0.23 0.23 0.25 0.29 0.30 0.33 0.39 0.38 0.34 0.32 0.33 0.38 0.37
0.01 0.01 0.02 0.06 0.12 0.14 0.23 0.33 0.36 0.37 0.38 0.34 0.38 0.56 0.55 0.56 0.56 0.54 0.51 0.51 0.40 0.31 0.22 0.16 0.17 0.18 0.21 0.25 0.27 0.38 0.36 0.36 0.37 0.31 0.31 0.30 0.29 0.28 0.31 0.37 0.40 0.40 0.42 0.41 0.39 0.37 0.37 0.41 0.39
0.01 0.01 0.03 0.09 0.12 0.14 0.21 0.32 0.45 0.48 0.48 0.42 0.47 0.74 0.92 0.84 0.79 0.72 0.53 0.52 0.51 0.37 0.27 0.19 0.20 0.22 0.28 0.35 0.38 0.48 0.44 0.44 0.45 0.44 0.41 0.37 0.37 0.38 0.39 0.43 0.46 0.45 0.44 0.44 0.45 0.46 0.44 0.43 0.40
0.01 0.02 0.07 0.11 0.11 0.16 0.23 0.33 0.43 0.45 0.40 0.37 0.52 0.95 1.44 1.23 0.98 1.05 0.89 0.63 0.57 0.41 0.32 0.30 0.27 0.32 0.41 0.49 0.50 0.60 0.53 0.53 0.53 0.55 0.52 0.45 0.42 0.40 0.41 0.44 0.47 0.51 0.55 0.52 0.47 0.43 0.42 0.41 0.44
0.00 0.02 0.07 0.11 0.19 0.22 0.28 0.34 0.46 0.41 0.38 0.50 0.76 1.17 1.57 1.44 1.16 1.19 1.13 0.86 0.73 0.58 0.46 0.42 0.38 0.40 0.51 0.63 0.63 0.65 0.58 0.58 0.61 0.65 0.64 0.56 0.50 0.44 0.44 0.51 0.53 0.55 0.55 0.49 0.45 0.42 0.42 0.44 0.46
0.01 0.02 0.04 0.10 0.26 0.31 0.31 0.35 0.41 0.37 0.46 0.66 0.89 1.10 1.41 1.47 1.24 1.10 1.05 0.98 0.93 0.91 0.74 0.65 0.62 0.61 0.63 0.69 0.73 0.69 0.63 0.66 0.70 0.71 0.65 0.61 0.53 0.50 0.53 0.53 0.58 0.54 0.57 0.58 0.56 0.55 0.54 0.54 0.54
0.01 0.03 0.07 0.14 0.28 0.36 0.34 0.32 0.32 0.34 0.44 0.70 0.79 0.79 1.09 1.25 1.18 1.21 1.15 1.04 1.02 1.04 1.12 1.04 0.90 0.86 0.85 0.80 0.78 0.83 0.75 0.73 0.77 0.76 0.67 0.64 0.67 0.76 0.75 0.64 0.68 0.67 0.73 0.84 0.80 0.74 0.72 0.70 0.69
0.02 0.08 0.10 0.15 0.20 0.26 0.32 0.34 0.31 0.35 0.40 0.62 0.91 0.87 0.87 1.07 1.24 1.36 1.39 1.28 1.22 1.25 1.36 1.36 1.32 1.24 1.16 1.08 1.18 1.20 1.05 0.94 0.90 0.97 0.88 0.87 1.12 1.21 1.05 1.09 1.04 1.01 0.99 1.03 1.05 0.97 0.88 0.85 0.78
0.04 0.09 0.13 0.19 0.15 0.19 0.25 0.28 0.27 0.37 0.54 0.62 0.97 1.27 1.08 1.21 1.52 1.82 1.68 1.63 1.64 1.57 1.39 1.30 1.44 1.55 1.64 1.71 1.60 1.58 1.55 1.48 1.38 1.47 1.39 1.42 1.62 1.51 1.50 1.58 1.43 1.28 1.22 1.20 1.36 1.22 0.95 0.88 0.94
0.06 0.09 0.13 0.15 0.12 0.14 0.17 0.24 0.32 0.43 0.72 0.83 1.04 1.26 1.55 1.54 1.77 1.89 1.95 1.93 1.87 1.88 1.70 1.48 1.45 1.54 1.75 1.93 1.87 1.83 1.80 1.78 1.70 1.72 1.55 1.77 1.94 2.02 2.04 2.10 1.89 1.81 1.74 1.75 1.74 1.65 1.40 1.23 1.19
0.08 0.08 0.09 0.10 0.11 0.10 0.16 0.26 0.32 0.39 0.49 0.70 0.91 1.08 1.49 1.53 1.59 1.86 2.14 2.40 2.41 2.27 2.11 1.93 1.73 1.71 1.87 2.10 2.20 2.13 2.13 2.10 2.20 2.30 2.07 2.10 2.12 2.19 2.48 2.48 2.60 2.27 2.25 2.30 2.22 2.01 1.91 1.73 1.56
0.07 0.06 0.06 0.08 0.08 0.10 0.15 0.21 0.29 0.32 0.40 0.52 0.59 0.80 1.07 1.28 1.56 2.02 2.37 2.68 3.02 2.85 2.51 2.27 2.16 2.00 2.00 2.09 2.32 2.44 2.30 2.37 2.47 2.60 2.48 2.49 2.56 2.67 3.00 3.08 3.03 2.78 2.80 2.96 2.98 2.78 2.53 2.29 2.15
0.05 0.05 0.06 0.06 0.08 0.08 0.12 0.23 0.29 0.36 0.40 0.44 0.49 0.68 0.93 1.35 1.67 2.22 2.66 2.93 3.30 3.05 2.93 2.74 2.63 2.57 2.39 2.33 2.55 2.70 2.62 2.57 2.57 2.74 2.84 2.82 2.90 3.20 3.32 3.57 3.50 3.27 3.25 3.30 3.26 3.43 3.39 2.89 2.54
0.07 0.08 0.11 0.09 0.07 0.07 0.10 0.26 0.35 0.36 0.41 0.48 0.58 0.80 1.04 1.35 1.69 1.97 2.30 2.63 3.16 3.23 3.00 2.93 2.65 2.61 2.80 2.80 3.04 3.05 3.12 3.25 3.16 3.13 3.33 3.35 3.40 3.53 3.58 3.58 3.60 3.50 3.47 3.75 3.85 3.79 3.72 3.46 3.10
0.09 0.08 0.09 0.11 0.08 0.07 0.08 0.22 0.38 0.34 0.34 0.50 0.64 0.90 1.26 1.35 1.57 1.69 2.02 2.29 2.65 2.71 2.80 2.95 2.89 2.81 2.85 3.03 3.39 3.57 3.73 3.92 4.10 4.11 4.27 4.21 4.03 3.97 4.03 4.00 4.06 3.91 3.95 3.90 3.77 4.08 4.01 3.84 3.49
0.04 0.06 0.07 0.09 0.08 0.07 0.08 0.17 0.39 0.47 0.47 0.57 0.64 0.82 1.12 1.23 1.59 1.83 1.95 2.03 2.40 2.62 2.81 2.98 3.13 3.28 3.23 3.25 3.48 3.94 4.15 4.30 4.67 4.73 4.74 4.82 4.83 4.71 4.67 4.60 4.60 4.46 4.34 4.19 4.14 4.15 3.93 3.77 3.53
0.03 0.06 0.07 0.07 0.06 0.07 0.13 0.23 0.36 0.50 0.57 0.71 0.86 0.91 0.96 1.16 1.59 2.00 2.17 2.25 2.56 2.80 2.98 2.96 3.12 3.46 3.70 4.06 4.06 4.29 4.73 5.09 5.22 5.33 5.32 5.23 5.13 5.12 4.97 4.79 4.87 4.72 4.50 4.26 4.15 4.12 4.00 3.64 3.49
0.02 0.05 0.07 0.08 0.09 0.11 0.18 0.31 0.41 0.52 0.60 0.76 0.95 0.99 0.95 1.15 1.47 1.93 2.14 2.44 2.66 2.80 3.06 3.21 3.32 3.73 4.23 4.78 5.29 5.70 6.05 6.05 6.17 6.12 6.01 5.72 5.52 5.39 5.21 5.18 5.02 4.79 4.62 4.38 4.19 4.11 4.00 3.66 3.57
0.03 0.04 0.06 0.09 0.12 0.16 0.23 0.42 0.54 0.64 0.72 0.82 0.93 0.98 1.06 1.26 1.57 1.78 2.01 2.32 2.57 2.79 3.06 3.24 3.54 4.14 4.96 5.49 5.96 6.53 6.87 6.59 6.32 6.03 5.96 5.88 5.80 5.67 5.50 5.44 5.18 4.94 4.66 4.33 4.07 3.93 3.81 3.68 3.63
0.05 0.05 0.06 0.08 0.13 0.25 0.27 0.51 0.80 0.91 1.01 0.93 1.03 1.17 1.30 1.43 1.59 1.78 1.98 2.24 2.53 2.87 3.00 3.19 3.75 4.46 5.13 5.68 6.30 6.91 7.20 7.26 7.06 6.50 6.01 5.59 5.30 5.08 4.93 4.88 4.70 4.51 4.24 4.00 3.73 3.63 3.56 3.66 3.49
0.05 0.05 0.06 0.09 0.14 0.24 0.28 0.52 1.03 1.26 1.31 1.26 1.31 1.35 1.38 1.41 1.54 1.70 1.87 2.08 2.21 2.56 3.03 3.35 3.91 4.59 5.24 5.97 6.70 7.16 7.39 7.40 7.02 6.24 5.48 4.94 4.60 4.32 4.08 4.01 3.91 3.77 3.58 3.40 3.32 3.32 3.27 3.24 3.09
0.04 0.06 0.09 0.13 0.19 0.30 0.30 0.50 1.10 1.44 1.66 1.63 1.50 1.52 1.50 1.40 1.39 1.43 1.63 1.81 2.10 2.45 2.84 3.32 3.64 4.24 4.92 5.52 6.10 6.30 6.45 6.39 5.99 5.57 5.08 4.65 4.12 3.66 3.31 3.16 3.07 2.94 2.84 2.84 2.86 2.90 2.87 2.87 2.83
0.04 0.10 0.26 0.40 0.46 0.42 0.31 0.56 1.15 1.46 1.45 1.45 1.44 1.52 1.49 1.32 1.34 1.54 1.81 1.80 2.05 2.33 2.71 3.15 3.54 3.91 4.43 4.97 5.46 5.70 5.85 5.73 5.25 4.80 4.35 3.92 3.41 3.03 2.75 2.58 2.53 2.43 2.38 2.38 2.50 2.58 2.52 2.48 2.50
0.04 0.11 0.32 0.52 0.57 0.57 0.52 0.90 1.34 1.35 1.24 1.19 1.17 1.21 1.35 1.39 1.43 1.53 1.66 1.74 2.03 2.25 2.49 2.88 3.20 3.56 3.79 4.03 4.40 4.65 4.80 4.66 4.32 3.85 3.37 3.05 2.76 2.47 2.30 2.18 2.11 2.02 1.94 1.92 2.05 2.17 2.23 2.20 2.23
0.07 0.10 0.18 0.24 0.32 0.57 0.92 1.22 1.57 1.49 1.36 1.25 1.13 1.15 1.26 1.24 1.27 1.40 1.57 1.68 1.87 2.17 2.51 2.76 2.88 3.09 3.27 3.47 3.55 3.54 3.64 3.55 3.30 3.02 2.71 2.42 2.16 1.90 1.78 1.73 1.70 1.64 1.61 1.67 1.80 1.87 1.83 1.85 1.91
0.08 0.10 0.14 0.24 0.54 0.81 1.06 1.54 1.88 1.97 1.86 1.71 1.40 1.28 1.22 1.25 1.26 1.29 1.44 1.62 1.70 1.78 2.10 2.40 2.46 2.57 2.67 2.76 2.80 2.72 2.76 2.66 2.59 2.43 2.20 1.94 1.80 1.59 1.50 1.46 1.46 1.45 1.43 1.47 1.52 1.62 1.64 1.61 1.62
0.11 0.13 0.16 0.25 0.38 0.76 1.17 1.75 1.94 2.21 2.29 2.14 1.78 1.60 1.54 1.48 1.39 1.36 1.41 1.48 1.58 1.71 1.86 2.08 2.24 2.25 2.30 2.43 2.39 2.27 2.32 2.31 2.27 2.15 1.99 1.85 1.78 1.65 1.52 1.42 1.45 1.45 1.40 1.38 1.42 1.41 1.46 1.51 1.52
0.11 0.15 0.24 0.45 0.48 0.53 1.01 1.94 2.20 2.33 2.28 2.03 1.84 1.70 1.61 1.51 1.36 1.32 1.29 1.26 1.34 1.54 1.75 1.92 2.02 2.02 2.05 2.11 2.18 2.24 2.24 2.16 2.06 1.88 1.75 1.61 1.49 1.36 1.30 1.27 1.31 1.30 1.23 1.22 1.20 1.16 1.19 1.26 1.34